TimeCDT,TemperatureF,Dew PointF,Humidity,Sea Level PressureIn,VisibilityMPH,Wind Direction,Wind SpeedMPH,Gust SpeedMPH,PrecipitationIn,Events,Conditions,WindDirDegrees,DateUTC
12:53 AM,62.1,53.1,72,30.03,10.0,North,23.0,29.9,N/A,,Clear,10,2012-09-18 05:53:00
1:10 AM,62.6,53.6,72,30.08,10.0,North,20.7,29.9,N/A,,Mostly Cloudy,10,2012-09-18 06:10:00
1:53 AM,60.1,51.1,72,30.04,10.0,North,21.9,-,N/A,,Overcast,10,2012-09-18 06:53:00
2:12 AM,60.8,51.8,72,30.10,10.0,NNE,18.4,-,N/A,,Scattered Clouds,20,2012-09-18 07:12:00
3:53 AM,57.9,48.9,72,30.04,10.0,NNE,13.8,-,N/A,,Clear,20,2012-09-18 08:53:00
4:53 AM,55.9,46.9,72,30.05,10.0,North,12.7,-,N/A,,Clear,10,2012-09-18 09:53:00
5:53 AM,54.0,48.0,80,30.07,10.0,North,10.4,-,N/A,,Clear,10,2012-09-18 10:53:00
6:53 AM,52.0,46.9,83,30.10,10.0,North,9.2,-,N/A,,Clear,360,2012-09-18 11:53:00
7:53 AM,52.0,46.0,80,30.12,10.0,North,8.1,-,N/A,,Clear,10,2012-09-18 12:53:00
8:53 AM,59.0,45.0,60,30.15,10.0,North,6.9,-,N/A,,Clear,360,2012-09-18 13:53:00
9:53 AM,63.0,41.0,45,30.17,10.0,NE,5.8,-,N/A,,Clear,40,2012-09-18 14:53:00
10:53 AM,66.0,39.0,37,30.17,10.0,East,5.8,-,N/A,,Clear,80,2012-09-18 15:53:00
11:53 AM,69.1,39.0,33,30.17,10.0,ESE,5.8,-,N/A,,Clear,120,2012-09-18 16:53:00
12:53 PM,72.0,37.0,28,30.16,10.0,NE,5.8,-,N/A,,Clear,40,2012-09-18 17:53:00
1:53 PM,73.0,37.0,27,30.14,10.0,Variable,4.6,-,N/A,,Clear,0,2012-09-18 18:53:00
2:53 PM,75.0,37.0,25,30.12,10.0,SSE,4.6,-,N/A,,Clear,150,2012-09-18 19:53:00
3:53 PM,77.0,36.0,23,30.08,10.0,Variable,3.5,-,N/A,,Clear,0,2012-09-18 20:53:00
4:53 PM,78.1,36.0,22,30.06,10.0,South,5.8,-,N/A,,Clear,190,2012-09-18 21:53:00
5:53 PM,77.0,35.1,22,30.04,10.0,Calm,Calm,-,N/A,,Clear,0,2012-09-18 22:53:00
6:53 PM,75.9,37.9,25,30.05,10.0,SSE,8.1,-,N/A,,Clear,160,2012-09-18 23:53:00
7:53 PM,68.0,41.0,37,30.06,10.0,South,5.8,-,N/A,,Clear,180,2012-09-19 00:53:00
8:53 PM,62.1,43.0,50,30.07,10.0,North,-9999.0,-,N/A,,Clear,0,2012-09-19 01:53:00
9:53 PM,61.0,42.1,50,30.08,10.0,South,10.4,-,N/A,,Clear,170,2012-09-19 02:53:00
10:53 PM,64.0,39.9,41,30.06,10.0,South,9.2,-,N/A,,Clear,190,2012-09-19 03:53:00
11:53 PM,63.0,41.0,45,30.06,10.0,South,9.2,-,N/A,,Clear,190,2012-09-19 04:53:00